sat.trackr.live / text

‹ back to catalog

STARLINK-30973

NORAD 58713 · 2024-002J

PAYLOAD ACTIVE UNKNOWN

§ Identity

Operator
Country
US
Launch date
2024-01-03
Launch site
AFWTR
Launch vehicle
Mass (kg)
RCS (m²)

Purposes: comms

External: N2YO · Heavens-Above · Gunter

§ Orbital elements

Epoch: 2026-05-24T22:57:37.838016Z

Period
94.11 min
Inclination
53.1598°
Eccentricity
0.0000830
Mean motion
15.30194593 rev/d
Perigee alt
474.7 km
Apogee alt
475.8 km
Semi-major
6,853.4 km
B*
4.7288e-5
RAAN
235.5802°
Arg perigee
103.1619°
Mean anomaly
256.9474°
Rev number
13,369

§ Raw data

STARLINK-309731 58713U 24002J   26144.95668794  .00001042  00000+0  47288-4 0  99922 58713  53.1598 235.5802 0000830 103.1619 256.9474 15.30194593133693

JSON: /api/v1/satellites/58713 · /tle

For live sub-satellite position, see the globe view (requires WebGL).

§ Visibility from observer

Set your observer location to see the next 7 days of passes ≥ 10°. The values pass through the URL so the page stays shareable.

No JS? Fill the form by hand. The geolocation button needs JavaScript.